Location: Asheville, NC
(35.6000°N, 82.5500°W)
Time: 00:22:10
(UTC-04:00)

AO-85 - Visible Passes

Search period start: 21 June 2018 00:00
Search period end: 01 July 2018 00:00
Orbit: 497 x 788 km, 64.8° (Epoch: 14 June)

Date Brightness Start Highest point End Pass type
(mag) Time Alt. Az. Time Alt. Az. Time Alt. Az.
21 Jun ? 04:32:23 10° N 04:35:54 17° NE 04:39:24 10° E visible
21 Jun ? 22:05:42 10° WNW 22:07:59 13° NW 22:10:21 10° NNW visible
22 Jun ? 04:56:21 10° NNW 05:01:17 34° NE 05:06:11 10° ESE visible
23 Jun ? 03:42:47 10° NNE 03:45:02 12° NE 03:47:19 10° ENE visible
23 Jun ? 05:20:56 10° NNW 05:26:23 76° ENE 05:31:45 10° SE visible
23 Jun ? 21:13:55 10° W 21:17:09 19° NW 21:20:35 10° N visible
24 Jun ? 04:06:08 10° N 04:10:34 25° NE 04:14:57 10° ESE visible
24 Jun ? 05:46:02 10° NW 05:51:14 47° WSW 05:56:19 10° S visible
25 Jun ? 04:30:28 10° NNW 04:35:48 52° ENE 04:41:02 10° SE visible
26 Jun ? 03:16:06 10° N 03:19:47 18° NE 03:23:27 10° E visible
26 Jun ? 04:55:20 10° NW 05:00:45 70° WSW 05:06:04 10° SSE visible
27 Jun ? 03:40:07 10° NNW 03:45:08 36° NE 03:50:05 10° ESE visible
27 Jun ? 05:20:49 10° NW 05:25:28 29° WSW 05:30:01 10° S visible
28 Jun ? 02:26:23 10° NNE 02:28:56 13° NE 02:31:29 10° ENE visible
28 Jun ? 04:04:45 10° NNW 04:10:13 81° ENE 04:15:35 10° SSE visible
28 Jun ? 05:48:03 10° W 05:49:57 12° WSW 05:51:50 10° SW visible
29 Jun ? 02:49:53 10° N 02:54:25 26° NE 02:58:55 10° ESE visible
29 Jun ? 04:29:54 10° NW 04:35:03 43° WSW 04:38:23 20° S visible
30 Jun ? 03:14:17 10° NNW 03:19:38 56° ENE 03:22:35 25° SE visible
30 Jun ? 04:56:00 10° WNW 04:59:38 18° WSW 05:00:04 18° WSW visible
